STAR ONE D1 (41904 NORAD) Tracking and Keplerian Element Data

This shows tracking and keplerian element data for the satellite.

Feedback or suggestion? Click here.




ElementValue
Catalog41904
NameSTAR ONE D1
Epoch Orbit3297
Epoch Day354.17459894
Epoch Year2025
RAAN54.9371
Inclination0.0399
Eccentricity0.0002814
Argument of Perigee251.2969
Mean Anonmoly121.6573
Mean Motion1.00266213
Decay Rate0
L11 41904U 16082B 25354.17459894 .00000000 00000+0 00000+0 0 9999
L22 41904 0.0399 54.9371 0002814 251.2969 121.6573 1.00266213 32976



Live tracking and technical data element details for STAR ONE D1 (NORAD 41904). STAR ONE D1 can be tracked NOW for your location showing map with azimuth and elevation plus other details from your city location.







IsCatalogInMostPopularTable: catalog: 41904, numindb: 869
Update: records affected: 1



GetName: 41904 STAR ONE D1

Hit Count: updated at: Sat, 14 Mar 2026 02:43:15 GMT